星链-31770 (STARLINK-31770 )

导读 | 星芒AI

STARLINK-31770 是 SpaceX Starlink 卫星互联网项目中的第 31770 颗卫星。该卫星属于星链计划的中轨道卫星群,旨在为全球用户提供高速、低延迟的互联网服务。它于近期由猎鹰 9 号火箭发射进入近地轨道,与其他星链卫星共同构建覆盖全球的通信网络。该卫星采用先进推进和通信技术,支持自动避碰功能,以确保太空安全。星链项目持续扩展,推动全球互联网接入的普及与数字化发展。

基本信息
目录编号:
59601
目录名称:
STARLINK-31770
国际标识:
2024-080A
轨道中心:
EARTH
卫星名称:
星链-31770
卫星全名:
星链-31770 (STARLINK-31770 )
卫星状态:
在轨 (已飞行553 天)
发射日期:
2024-04-28 UTC
国别 :
美国 (US)
星等 :
--
轨道信息
数据来源 国际轨道数据
星历时间: 2025-11-01T23:00:59+0800
19小时前
查看轨道信息
半长轴: 6861.229km
偏心率: 0.0001201
轨道倾角: 43.001°
近地点辐角 262.222°
升交点赤经 41.429°
平近点角 97.850°
近地点: 482.269km
远地点: 483.919km
周期: 94.268分钟
每日圈数: 15.27566
详细信息
固有亮度:
5
最大亮度:
1.5
卫星平台:
Starlink v2.0 mini
覆盖范围:
全球
运营商:
太空探索技术公司
运营商所在国:
美国
制造商(研发单位):
太空探索技术公司
制造商所在国:
美国
使用方式:
暂无
卫星简介
星链(Starlink)计划是由太空探索技术公司(SpaceX)提出的一个巨型低轨卫星互联网星座项目,计划在2019年至2024年间在太空搭建由约1.2万颗卫星组成的“星链”网络,其中1584颗将部署在地球上空550千米处的近地轨道,并从2020年开始工作。该卫星仍在工作。
2D轨道图
3D轨道图
轨道高度分析图
轨道倾角分析图
轨道综合分析图
查看轨道综合分析图